Home > Weather > Feira de Santana > Past weeks

Flag for Brazil Past Weather in Feira de Santana, Bahia, Brazil — Yesterday and Last 2 Weeks

Now
77 °F

Partly cloudy.


Feels Like: 79 °F
Forecast: 66 / 84 °F
Wind: 12 mph from Southeast

Location: Salvador Aeroporto

Current Time: Aug 29, 2016 at 10:39:45 PM

Latest Report: Aug 29, 2016 at 10:00 PM


Visibility: N/A

Pressure: 30.09 "Hg

Humidity: 79%

Dew Point: 70 °F

Location of Feira de SantanaLocation

Past Weather in Feira de Santana — Graph

°F

Feira de Santana Temperature Yesterday

Maximum temperature yesterday: 81 °F (at 9:00 AM)
Minimum temperature yesterday: 72 °F (at 8:00 PM)
Average temperature yesterday: 77 °F

High & Low Weather Summary for the Past Weeks

 TemperatureHumidityPressure
High84 °F (Aug 16, 11:00 AM)100% (Aug 26, 5:00 PM)30.15 "Hg (Aug 26, 5:00 PM)
Low37 °F (Aug 26, 8:00 PM)51% (Aug 28, 4:00 PM)29.92 "Hg (Aug 16, 3:00 PM)
Average77 °F74%30.05 "Hg
* Reported Aug 14 9:00 PM — Aug 29 9:00 PM, Feira de Santana, Weather by CustomWeather, © 2016

Note: Actual official high and low records may vary slightly from our data, if they occured in-between our weather recording intervals... More about our weather records

Advertising

Feira de Santana Weather History for the Previous 24 Hours

Scroll right to see more
 ConditionsComfort  
Time TempWeatherWind HumidityBarometerVisibility
9:00 PM
Mon, Aug 29
73 °FPartly cloudy.5 mph94%30.09 "HgN/A
8:00 PM73 °FFog.15 mph89%30.09 "Hg3 mi
7:00 PM77 °FPassing clouds.9 mph79%30.07 "HgN/A
6:00 PM77 °FPartly cloudy.7 mph83%30.04 "HgN/A
5:00 PM77 °FScattered clouds.12 mph74%30.04 "HgN/A
4:00 PM79 °FBroken clouds.13 mph74%30.04 "HgN/A
3:00 PM79 °FBroken clouds.12 mph79%30.04 "HgN/A
2:00 PM75 °FPartly sunny.3 mph89%30.04 "Hg5 mi
1:00 PM79 °FScattered showers. Partly sunny.8 mph74%30.07 "HgN/A
12:00 PM77 °FLight rain. Broken clouds.6 mph83%30.09 "Hg3 mi
11:00 AM79 °FScattered showers. Partly sunny.6 mph74%30.09 "HgN/A
10:00 AM77 °FBroken clouds.3 mph79%30.12 "HgN/A
9:00 AM73 °FLight rain. Fog.5 mph89%N/A3 mi
8:00 AM73 °FCloudy.3 mph89%30.09 "Hg5 mi
7:00 AM72 °FCloudy.2 mph94%30.07 "Hg4 mi
6:00 AM70 °FCloudy.3 mph94%30.04 "Hg5 mi
4:00 AM70 °FPassing clouds.3 mph94%30.01 "HgN/A
3:00 AM70 °FScattered showers. Passing clouds.3 mph94%30.01 "Hg5 mi
2:00 AM70 °FFog.3 mph94%30.04 "Hg2 mi
1:00 AM70 °FScattered showers. Overcast.3 mph94%30.04 "Hg5 mi
12:00 AM70 °FPartly cloudy.6 mph88%30.07 "Hg5 mi
11:00 PM
Sun, Aug 28
72 °FPassing clouds.8 mph83%30.09 "HgN/A
10:00 PM73 °FPassing clouds.10 mph74%30.09 "HgN/A
Weather by CustomWeather, © 2016

See weather overviewHow to use our weather pages